Regional Weather Roundup
Issued by NWS

Home | Current Version | Previous Version | Text Only | Print | Product List | Glossary On
Versions: 1 2 3 4 5 6 7 8 9 10 11 12 13 14 15 16 17 18 19 20 21 22 23 24 25 26 27 28 29 30 31 32 33 34 35 36 37 38 39 40 41 42 43 44 45 46 47 48 49 50
416
ASUS43 KFSD 130510
RWRSD

WEATHER ROUNDUP FOR SOUTH DAKOTA
NATIONAL WEATHER SERVICE SIOUX FALLS SD
1100 PM CST TUE DEC 12 2017

NOTE: "FAIR" INDICATES FEW OR NO CLOUDS BELOW 12,000 FEET WITH NO
SIGNIFICANT WEATHER AND/OR OBSTRUCTIONS TO VISIBILITY.


SDZ001>005-009-010-012>017-130600-
NORTHWEST AND NORTH CENTRAL SOUTH DAKOTA

CITY           SKY/WX    TMP DP  RH WIND       PRES   REMARKS
BUFFALO          N/A     49  21  33 W31G40    29.80R
FAITH            N/A     51  17  26 NW33G52   29.75R
MOBRIDGE       CLOUDY    51  21  30 NW18      29.57F
$$

SDZ012>016-024>037-041>051-057-063-072>074-130600-
SOUTHWEST AND SOUTH CENTRAL SOUTH DAKOTA

CITY           SKY/WX    TMP DP  RH WIND       PRES   REMARKS
RAPID CTY ARPT CLOUDY    56  10  16 NW44G58   29.87R
PIERRE         CLOUDY    48  21  34 W16       29.67F
CUSTER         CLOUDY    47   7  19 NW16G31   29.94F
ELLSWORTH AFB  CLOUDY    55  10  16 NW37G49   29.86S
PHILIP         CLOUDY    55  16  21 NW28G38   29.76F
PINE RIDGE     CLOUDY    40  22  48 SW8       29.91S
SPEARFISH      FAIR      50  10  20 NW33G45   29.94R
WINNER         FAIR      49  20  31 W17       29.72F
$$

SDZ004>011-016>023-039-040-130600-
NORTHEAST SOUTH DAKOTA

CITY           SKY/WX    TMP DP  RH WIND       PRES   REMARKS
ABERDEEN       CLOUDY    36  27  69 SW9       29.53F
WATERTOWN      CLOUDY    31  25  78 SW8       29.53F WCI  23
BROOKINGS      CLOUDY    33  24  69 SW10      29.58  WCI  25
SISSETON         N/A     43  27  53 W23       29.45F
$$

SDZ017-020-022-023-036>040-048>070-130600-
SOUTHEAST SOUTH DAKOTA

CITY           SKY/WX    TMP DP  RH WIND       PRES   REMARKS
SIOUX FALLS    CLOUDY    37  25  61 SW6       29.63F
HURON          PTCLDY    42  26  53 W10       29.60F
CHAMBERLAIN    CLOUDY    46  22  39 W13G18    29.68F
MITCHELL       CLOUDY    45  24  43 W14       29.64F
YANKTON        CLOUDY    40  23  50 SW10      29.68F
$$

ABBREVIATIONS USED IN REMARKS
   TC - TEMPERATURE IN CELSIUS
  WCI - WIND CHILL INDEX
   HX - HEAT INDEX
  VSB - VISIBILITY





USA.gov is the U.S. government's official web portal to all federal, state and local government web resources and services.